AirNav   Everest Fuels
 
 492 users online  

KVDF Tampa Executive Airport
Tampa, Florida, USA

GOING TO TAMPA?


FAA INFORMATION EFFECTIVE 09 SEPTEMBER 2021

Location

FAA Identifier: VDF
Lat/Long: 28-00-50.3540N 082-20-42.9330W
28-00.839233N 082-20.715550W
28.0139872,-82.3452592
(estimated)
Elevation: 21.1 ft. / 6.4 m (surveyed)
Variation: 04W (2000)
From city: 6 miles E of TAMPA, FL
Time zone: UTC -4 (UTC -5 during Standard Time)
Zip code: 33610

Airport Operations

Airport use: Open to the public
Activation date: 05/1957
Control tower: no
ARTCC: MIAMI CENTER
FSS: SAINT PETERSBURG FLIGHT SERVICE STATION
NOTAMs facility: VDF (NOTAM-D service available)
Attendance: MON-FRI 0700-2200, ALL SAT-SUN 0700-1900
Wind indicator: lighted
Segmented circle: yes
Lights: ACTVT MALSR RWY 23; REIL RWY 05, 18, 36; PAPI RWY 05, 23, 18, 36; MIRL RWY 05/23, 18/36 - CTAF.
Beacon: white-green (lighted land airport)
Operates sunset to sunrise.

Airport Communications

CTAF/UNICOM: 122.7
WX AWOS-3: 121.125 (813-630-0924)
TAMPA APPROACH: 119.9
TAMPA DEPARTURE: 119.9
BLFRG STAR: 119.65
DADES STAR: 135.5
MAATY STAR: 118.8
WX AWOS-3 at TPF (8 nm SW): 118.925 (813-251-6824)
WX AWOS-3 at PCM (10 nm E): 120.025 (813-764-8259)
WX ASOS at TPA (10 nm W): 126.45 (813-873-7228)
WX AWOS-3PT at ZPH (16 nm NE): 118.975 (813-780-0031)
WX AWOS-3PT at LAL (17 nm E): 118.025 (863-834-2030)
WX ASOS at PIE (19 nm W): 134.5 (727-531-3456)

Nearby radio navigation aids

VOR radial/distance  VOR name  Freq  Var
LALr274/17.6LAKELAND VORTAC116.0001E
PIEr075/19.1ST PETERSBURG VORTAC116.4005W
SRQr023/38.2SARASOTA VOR/DME117.0005W

 
NDB name  Hdg/Dist  Freq  Var  ID
COSME119/10.436805WTP - .--.

Airport Services

Fuel available: 100LL JET-A
Parking: hangars and tiedowns
Airframe service: MAJOR
Powerplant service: MAJOR
Bottled oxygen: NONE
Bulk oxygen: NONE

Runway Information

Runway 5/23

Dimensions: 5000 x 100 ft. / 1524 x 30 m
Surface: asphalt/concrete, in good condition
Weight bearing capacity: 
PCN 12 /F/A/X/T
Single wheel: 34.5
Double wheel: 63.0
Runway edge lights: medium intensity
RUNWAY 5  RUNWAY 23
Latitude: 28-00.727325N28-01.336483N
Longitude: 082-20.862127W082-20.235100W
Elevation: 19.2 ft.21.0 ft.
Traffic pattern: leftleft
Runway heading: 046 magnetic, 042 true226 magnetic, 222 true
Displaced threshold: no800 ft.
Declared distances: TORA:4574 TODA:4574 ASDA:4956 LDA:4956TORA:5000 TODA:5000 ASDA:5000 LDA:4200
Markings: precision, in fair conditionprecision, in fair condition
Visual slope indicator: 2-light PAPI on left (3.02 degrees glide path)2-light PAPI on left (3.10 degrees glide path)
Approach lights: MALSR: 1,400 foot medium intensity approach lighting system with runway alignment indicator lights
Runway end identifier lights: yesno
Touchdown point: yes, no lightsyes, no lights
Instrument approach: ILS/DME
Obstructions: 35 ft. trees, 200 ft. from runway, 410 ft. left of centerline, 1:1 slope to clear
RWY 5 HAS 35 FT TREES 0 FT FM RWY END AND 410 FT LEFT.
17 ft. trees, 369 ft. from runway, 1:1 slope to clear
RY 23 APCH SLOPE 50:1 TO DSPLCD THLD.

Runway 18/36

Dimensions: 3219 x 75 ft. / 981 x 23 m
Surface: asphalt, in fair condition
Weight bearing capacity: 
PCN 21 /F/B/X/T
Single wheel: 59.0
Double wheel: 84.0
Runway edge lights: medium intensity
RUNWAY 18  RUNWAY 36
Latitude: 28-00.805620N28-00.274385N
Longitude: 082-20.973797W082-20.975733W
Elevation: 18.4 ft.18.5 ft.
Traffic pattern: leftleft
Runway heading: 184 magnetic, 180 true004 magnetic, 000 true
Declared distances: TORA:3219 TODA:3219 ASDA:3219 LDA:3219TORA:3219 TODA:3219 ASDA:3219 LDA:3219
Markings: nonprecision, in good conditionnonprecision, in good condition
Visual slope indicator: 4-light PAPI on right (3.80 degrees glide path)2-light PAPI on left (3.40 degrees glide path)
Runway end identifier lights: yesyes
Touchdown point: yes, no lightsyes, no lights
Obstructions: 53 ft. trees, 1530 ft. from runway, 40 ft. right of centerline, 25:1 slope to clear123 ft. pole, lighted, 2895 ft. from runway, 20 ft. left of centerline, 22:1 slope to clear

Airport Ownership and Management from official FAA records

Ownership: Publicly-owned
Owner: HILLSBOROUGH COUNTY AVIATION AUTH
PO BOX 22287
TAMPA, FL 33622
Phone (813) 870-8776
Manager: BRETT W FAY, C.M.
PO BOX 22287
TAMPA, FL 33622
Phone (813) 870-8735

Airport Operational Statistics

Aircraft based on the field: 176
Single engine airplanes: 147
Multi engine airplanes: 19
Jet airplanes: 5
Helicopters: 5
    
Aircraft operations: avg 259/day *
53% local general aviation
47% transient general aviation
<1% air taxi
<1% military
* for 12-month period ending 13 December 2017

Additional Remarks

AFTER HRS FUEL AND SVCS AVBL. JET SINGLE POINT FUELING AND LAV SVS AVBL. CTC FBO ON CALL ATTENDANT AT 813-695-6097.
CTC GENERAL AVIATION DEPT AT 813-870-8770.
NOISE ABATEMENT PROCEDURES IN EFFECT FOR RY 18. NO TURNS UNTIL OVER INTERSTATE. NO TURNS BLO 400 FT AGL.
WHEN DEPARTING RY O5 BE ALERT FOR MALSR LGT FIXTURE LCTD 55 FT BYD RY END & 9 FT ABV RY END ELEV.
FOR CD CTC TAMPA APCH ON 119.9.

Instrument Procedures

NOTE: All procedures below are presented as PDF files. If you need a reader for these files, you should download the free Adobe Reader.

NOT FOR NAVIGATION. Please procure official charts for flight.
FAA instrument procedures published for use from 09 September 2021 at 0901Z to 07 October 2021 at 0900Z.

 
STARs - Standard Terminal Arrivals
BLFRG ONE (RNAV) **NEW**   2 pages: [1] [2] (371KB)
BRDGE EIGHT **CHANGED**   download (249KB)
DADES SEVEN (RNAV)   2 pages: [1] [2] (528KB)
DEAKK FIVE (RNAV)   download (273KB)
FOOXX FIVE (RNAV)   download (283KB)
LZARD SIX   download (260KB)
MAATY ONE RNAV   2 pages: [1] [2] (350KB)
MAATY ONE RNAV, CONT.2   download (164KB)
 
IAPs - Instrument Approach Procedures
ILS OR LOC RWY 23   download (254KB)
RNAV (GPS) RWY 05   download (265KB)
RNAV (GPS) RWY 18   download (224KB)
RNAV (GPS) RWY 23   download (245KB)
NOTE: Special Alternate Minimums apply   download (123KB)
NOTE: Special Take-Off Minimums/Departure Procedures apply   download (408KB)

Other nearby airports with instrument procedures:

KTPF - Peter O Knight Airport (8 nm SW)
KPCM - Plant City Airport (10 nm E)
KTPA - Tampa International Airport (10 nm W)
KMCF - MacDill Air Force Base (14 nm SW)
KZPH - Zephyrhills Municipal Airport (16 nm NE)
KLAL - Lakeland Linder International Airport (17 nm E)
KPIE - St Pete-Clearwater International Airport (19 nm W)
 
Loc | Ops | Rwys | IFR | FBO | Links
Com | Nav | Svcs | Stats | Notes


 
Area around KVDF (Tampa Executive Airport)
 
Road maps at: MapQuest Bing Google
 
Aerial photo
WARNING: Photo may not be current or correct
Aerial photo of KVDF (Tampa Executive Airport)
Photo courtesy of PhotosFromTheAir.com
Photo taken 27-Feb-2012
looking east.

Do you have a better or more recent aerial photo of Tampa Executive Airport that you would like to share? If so, please send us your photo.

 
Sectional chart

 
Airport diagram
CAUTION: Diagram may not be current
Diagram of KVDF (Tampa Executive Airport)
 
Airport distance calculator
Flying to Tampa Executive Airport? Find the distance to fly.

From to KVDF

Sunrise and sunset
Times for 23-Sep-2021
 Local
(UTC-4)
 Zulu
(UTC)
Morning civil twilight06:5610:56
Sunrise07:1911:19
Sunset19:2423:24
Evening civil twilight19:4823:48

Current date and time
Zulu (UTC)  23-Sep-2021 10:28:49
Local (UTC-4)  23-Sep-2021 06:28:49
 
METAR
KVDF 231015Z AUTO 00000KT 10SM CLR 23/23 A2988 RMK AO2
KTPF 
8nm SW 
231015Z AUTO 00000KT 10SM OVC110 25/24 A2987 RMK AO2
KPCM 
10nm E 
231015Z AUTO 00000KT 3SM BR CLR 23/23 A2989 RMK AO2
KTPA 
10nm W 
230953Z 00000KT 10SM FEW030 27/24 A2987 RMK AO2 SLP113 T02720239 $
KMCF 
13nm SW 
230956Z AUTO 00000KT 6SM HZ CLR 24/16 A2983 RMK AO2 SLP104 T02380163 FZRANO $
KZPH 
16nm NE 
231015Z AUTO 00000KT 10SM CLR 22/22 A2989 RMK A02 T02190215
KLAL 
18nm E 
230950Z 00000KT 10SM SCT048 23/23 A2988
KPIE 
19nm W 
230953Z 17003KT 10SM CLR 24/23 A2986 RMK AO2 SLP111 T02440228
TAF
KTPA 
10nm W 
230526Z 2306/2412 VRB03KT P6SM VCSH FEW025 FM231000 36005KT P6SM VCSH SCT020 TEMPO 2312/2315 SHRA BKN020 FM231600 31008KT P6SM SCT025 BKN050 FM240000 36005KT P6SM SCT040
KMCF 
13nm SW 
230529Z 2305/2407 30006KT 9999 SCT020 QNH2984INS TEMPO 2305/2307 9000 RA BKN020 BECMG 2317/2318 36006KT 9999 VCTS SCT030CB QNH2983INS TEMPO 2319/2320 36010KT 8000 TSRA SCT030CB BKN090 BECMG 2401/2402 36006KT 9999 NSW FEW025 SCT050 QNH2990INS TX29/2318Z TN24/2311Z
KLAL 
18nm E 
230526Z 2306/2406 VRB03KT P6SM FEW020 FM230800 VRB04KT P6SM FEW008 SCT015 TEMPO 2312/2315 SCT007 BKN015 FM231700 33005KT P6SM SCT020 BKN050 FM232000 35006KT P6SM VCSH SCT025 FM240200 VRB04KT P6SM FEW040 SCT250 AMD NOT SKED TIL 231100
KPIE 
19nm W 
230526Z 2306/2406 VRB04KT P6SM VCSH FEW025 FM231000 01006KT P6SM VCSH SCT020 TEMPO 2312/2315 SHRA BKN020 FM231700 34008KT P6SM SCT025 BKN050 FM240000 36007KT P6SM SCT040
NOTAMs
Click for the latest NOTAMs
NOTAMs are issued by the DoD/FAA and will open in a separate window not controlled by AirNav.

 

 
 

FBO, Fuel Providers, and Aircraft Ground Support

  
 Business Name 
 
 Contact 
 
 Services / Description 
 
Fuel Prices
 
Comments
  
Skyport Aviation UNICOM 122.70
813-626-1515
[web site]
[email]
Airport management, Aviation fuel, Aircraft ground handling, Oxygen service, Aircraft parking (ramp or tiedown), Hangars, Hangar leasing / sales, ...
More info and photos of Skyport Aviation
 
NATA Safety 1st   U.S. Government AIR Card   CAA Preferred FBO   UVair   World Fuel Contract Fuel   World Fuel Rewards   Contract Fuel   Courtesy car   Hertz   Wireless Internet Access (WiFi)  
 
World Fuel Services
100LL Jet A
FS $6.20 $5.88 
 Updated 09-Sep-2021
 
   4 read write
FS=Full service
Update Fuel Prices
 

Would you like to see your business listed on this page?

 If your business provides an interesting product or service to pilots, flight crews, aircraft, or users of the Tampa Executive Airport, you should consider listing it here.  To start the listing process, click on the button below
 
Add a business
 

Other Pages about Tampa Executive Airport

www.tampaairport.com/tampa-executive-airport
 
Update a link
 
Copyright © AirNav, LLC. All rights reserved. Privacy Policy  Contact